BV1EV-2 Weather Reports


Display with metric or nautical units.
time (UTC)temp
F
wind
direction
speed
MPH
gust
MPH
rain 1hr
in
rain 24hr
in
rain mn
in
humidity
%
barometer
mb
20260505165747 83 0.0 0.0 0.00 0.00 0.00 47 1011.5
20260505163747 83 0.0 0.0 0.00 0.00 0.00 47 1011.5
20260505161747 83 0.0 0.0 0.00 0.00 0.00 47 1011.6
20260505151748 81 0.0 0.0 0.00 0.00 0.00 61 1012.5
20260505123748 86 0.0 0.0 0.00 0.00 0.00 45 1013.1
20260505121748 86 0.0 0.0 0.00 0.00 0.00 45 1013.0
20260505115748 85 0.0 0.0 0.00 0.00 0.00 46 1013.1
20260505113747 85 0.0 0.0 0.00 0.00 0.00 46 1012.4
20260505111747 81 0.0 0.0 0.00 0.00 0.00 51 1011.9
20260505101747 80 0.0 0.0 0.00 0.00 0.00 48 1012.3
20260505095747 80 0.0 0.0 0.00 0.00 0.00 47 1012.3
20260505093747 82 0.0 0.0 0.00 0.00 0.00 39 1012.2
20260505091747 82 0.0 0.0 0.00 0.00 0.00 40 1012.1
20260505085747 83 0.0 0.0 0.00 0.00 0.00 40 1011.8
20260505083747 83 0.0 0.0 0.00 0.00 0.00 41 1011.6
20260505081747 83 0.0 0.0 0.00 0.00 0.00 42 1011.6
20260505075747 83 0.0 0.0 0.00 0.00 0.00 43 1011.7
20260505073747 83 0.0 0.0 0.00 0.00 0.00 44 1011.8
20260505071747 84 0.0 0.0 0.00 0.00 0.00 46 1011.8
20260505065747 85 0.0 0.0 0.00 0.00 0.00 53 1012.2
20260505063747 84 0.0 0.0 0.00 0.00 0.00 54 1012.5
20260505061747 80 0.0 0.0 0.00 0.00 0.00 63 1012.4
20260505055747 80 0.0 0.0 0.00 0.00 0.00 62 1012.5
20260505053747 80 0.0 0.0 0.00 0.00 0.00 62 1012.7
20260505051747 79 0.0 0.0 0.00 0.00 0.00 62 1012.7
20260505041747 79 0.0 0.0 0.00 0.00 0.00 60 1013.4
20260505035747 78 0.0 0.0 0.00 0.00 0.00 58 1013.5
20260505033747 78 0.0 0.0 0.00 0.00 0.00 54 1013.5
20260505031747 79 0.0 0.0 0.00 0.00 0.00 45 1013.5
20260505025747 79 0.0 0.0 0.00 0.00 0.00 36 1013.6
20260505023747 75 0.0 0.0 0.00 0.00 0.00 44 1014.0
20260505021747 77 0.0 0.0 0.00 0.00 0.00 38 1013.9
20260505015747 78 0.0 0.0 0.00 0.00 0.00 33 1014.1
20260505013747 79 0.0 0.0 0.00 0.00 0.00 33 1014.4
20260505011748 80 0.0 0.0 0.00 0.00 0.00 34 1014.3
20260505005747 81 0.0 0.0 0.00 0.00 0.00 36 1014.0
20260505003747 79 0.0 0.0 0.00 0.00 0.00 50 1014.1
20260505001746 78 0.0 0.0 0.00 0.00 0.00 49 1014.1
20260504235747 78 0.0 0.0 0.00 0.00 0.00 48 1013.7
20260504233748 77 0.0 0.0 0.00 0.00 0.00 48 1013.6
20260504231748 77 0.0 0.0 0.00 0.00 0.00 46 1013.8
20260504225747 76 0.0 0.0 0.00 0.00 0.00 46 1013.6
20260504223748 76 0.0 0.0 0.00 0.00 0.00 44 1013.4
20260504221748 75 0.0 0.0 0.00 0.00 0.00 42 1013.2
20260504215747 77 0.0 0.0 0.00 0.00 0.00 35 1013.0
20260504213747 77 0.0 0.0 0.00 0.00 0.00 33 1012.9
20260504211748 77 0.0 0.0 0.00 0.00 0.00 33 1012.6
20260504205748 77 0.0 0.0 0.00 0.00 0.00 33 1012.4
20260504203748 78 0.0 0.0 0.00 0.00 0.00 34 1012.4
20260504201747 78 0.0 0.0 0.00 0.00 0.00 33 1012.5
20260504195747 78 0.0 0.0 0.00 0.00 0.00 34 1012.4
20260504193747 79 0.0 0.0 0.00 0.00 0.00 34 1012.4
20260504191747 79 0.0 0.0 0.00 0.00 0.00 36 1012.5
20260504185748 80 0.0 0.0 0.00 0.00 0.00 37 1012.5
20260504183748 81 0.0 0.0 0.00 0.00 0.00 35 1012.7
20260504181747 81 0.0 0.0 0.00 0.00 0.00 37 1012.9
20260504175747 82 0.0 0.0 0.00 0.00 0.00 42 1013.2
20260504173747 82 0.0 0.0 0.00 0.00 0.00 44 1013.6
20260504171747 78 0.0 0.0 0.00 0.00 0.00 47 1014.0